Location: Blanot
(47.1713°N, 4.2340°E)
Time: 10:50:33
(UTC+00:00)

Cosmos 1703 Rocket - Pass Details

Date: 14 July 2020
Orbit: 605 x 633 km, 82.5° (Epoch: 05 August)

Event Time Altitude Azimuth Distance (km) Brightness Sun altitude
Rises 00:29:36 0° 355° (N) 2,934 8.4 -20.6°
Reaches altitude 10° 00:31:56 10° 2° (N) 2,018 7.4 -20.5°
Maximum altitude 00:36:15 47° 76° (ENE) 839 4.3 -20.4°
Enters shadow 00:38:05 29° 132° (SE) 1,141 4.6 -20.3°
